Location: Skanderborg
(56.0313°N, 9.9317°E)
Time: 06:20:26
(UTC+00:00)

Daily predictions for brighter satellites

Satellite Brightness Start Highest point End
(mag) Time Altitude Azimuth Time Altitude Azimuth Time Altitude Azimuth
Resurs 1-3 3.9 19:29:05 10° S 19:33:28 73° WSW 19:37:53 10° NNW
OBJECT-B 1.5 19:32:47 10° S 19:36:01 56° W 19:39:18 10° NNW
Cosmos 1441 Rocket 4.1 19:33:19 10° SSW 19:37:00 53° WNW 19:40:42 10° N
Cosmos 921 Rocket 3.3 19:34:55 10° NNW 19:39:06 64° WSW 19:43:15 10° S
Cosmos 1633 Rocket 3.0 19:35:16 10° S 19:39:40 73° E 19:44:06 10° NNE
Cosmos 2123 Rocket 4.2 19:33:43 10° NNW 19:39:58 81° W 19:46:14 10° S
Cosmos 1184 Rocket 2.9 19:37:12 10° S 19:40:26 55° E 19:43:41 10° NNE
Landsat 7 4.1 19:37:31 10° SE 19:42:09 55° ENE 19:46:49 10° N
SPOT 5 3.8 19:39:00 10° ESE 19:42:47 30° ENE 19:46:42 10° N
Cosmos 1535 Rocket 4.5 19:40:12 10° S 19:46:17 74° E 19:52:24 10° NNE
MetOp-B 4.2 19:42:27 10° SSE 19:47:48 78° ENE 19:53:12 10° NNW
Meteor 1-19 Rocket 4.2 19:43:09 10° NNW 19:48:35 66° ENE 19:54:03 10° SSE
Okean 1 3.4 19:47:15 10° N 19:51:20 69° ENE 19:55:22 10° SSE
OPS 6432 4.3 19:48:01 10° SW 19:51:42 66° SE 19:54:44 10° ENE
CZ-2C R/B 2.8 19:46:40 10° NNE 19:51:51 78° WNW 19:57:06 10° SSW
ERBS 2.4 19:49:58 10° W 19:53:17 74° N 19:56:36 10° E
Cosmos 1605 Rocket 4.0 19:48:44 10° S 19:54:43 61° E 20:00:43 10° NNE
USA 267 4.3 19:50:52 10° E 19:55:42 22° SE 20:00:32 10° S
Cosmos 2219 Rocket 3.3 19:51:39 10° NNW 19:56:53 35° NE 20:02:04 10° ESE
Meteor 2-4 Rocket 4.0 19:51:37 10° N 19:57:10 52° ENE 20:02:31 10° SE
NOSS 3-2 (A) 3.5 19:52:43 10° SSW 19:58:27 57° SE 20:05:04 10° NE
Cosmos 540 Rocket 3.6 19:54:23 10° NNW 19:59:34 70° ENE 20:04:39 10° SE
SL-16 R/B 2.4 19:54:47 10° NW 20:00:28 76° WSW 20:06:08 10° SSE
SL-4 R/B 2.3 20:00:06 10° WSW 20:03:53 42° S 20:07:23 10° ESE
Cosmos 2242 Rocket 3.6 19:59:29 10° NNW 20:03:57 89° ENE 20:08:21 10° S
BREEZE-M DEB (TANK) 3.3 20:02:13 10° SW 20:04:57 36° SSE 20:11:28 10° E
SL-27 R/B 3.3 20:05:06 10° SSE 20:07:58 27° ESE 20:10:50 10° NE
NOSS 3-2 (C) 3.7 20:03:39 10° SSW 20:09:12 46° SE 20:15:35 10° NE
Cosmos 1470 Rocket 3.5 20:05:06 10° S 20:09:29 82° E 20:13:52 10° NNE
Cosmos 2322 4.3 20:04:49 10° NNW 20:10:20 48° NE 20:15:30 12° ESE
BREEZE-M DEB (TANK) 3.4 20:09:56 10° WSW 20:11:42 17° SSW 20:12:31 14° SSE
Cosmos 2082 Rocket 2.5 20:08:08 10° SW 20:13:50 75° NW 20:19:32 10° NNE
Cosmos 1242 Rocket 4.3 20:11:38 10° N 20:14:27 21° ENE 20:16:53 12° ESE
Cosmos 2322 Rocket 2.4 20:12:06 10° NW 20:17:47 70° WSW 20:23:14 11° SSE
ERS-1 Rocket 3.1 20:16:14 12° SSE 20:20:51 66° ENE 20:25:52 10° NNW
Meteor 1-14 Rocket 4.5 20:15:40 10° S 20:21:27 60° E 20:27:21 10° NNE
Cosmos 2221 Rocket 4.3 20:20:33 10° N 20:24:50 41° ENE 20:28:09 16° SE
Cosmos 841 Rocket 3.6 20:19:57 10° NNW 20:25:13 80° WSW 20:29:56 13° SSE
Cosmos 1850 Rocket 4.1 20:21:09 10° S 20:26:21 60° ESE 20:31:32 10° NNE
Cosmos 2360 Rocket 2.2 20:21:18 10° NW 20:27:02 87° NE 20:31:48 15° SE
SL-16 R/B 4.3 20:23:35 10° NNW 20:27:50 21° NNE 20:32:05 10° ENE
Meteor 1-25 Rocket 4.3 20:22:36 10° SSW 20:28:13 85° WNW 20:33:57 10° NNE
Cosmos 1500 3.8 20:25:36 15° SSE 20:28:17 37° E 20:31:48 10° NNE
SPOT 1/Viking Rocket 3.7 20:23:37 10° SSE 20:28:51 82° WSW 20:34:08 10° NNW
USA 276 4.3 20:27:05 10° WSW 20:28:54 14° SSW 20:30:10 12° S
Okean 3 3.8 20:24:42 10° N 20:28:56 51° ENE 20:32:07 17° SE
Cosmos 1536 4.5 20:27:22 15° ESE 20:29:01 18° E 20:31:46 10° NE
Cosmos 676 Rocket 4.5 20:23:58 10° SW 20:29:17 67° WNW 20:34:39 10° NNE
USA 32 4.3 20:25:37 10° SSW 20:30:50 72° W 20:36:06 10° N
Cosmos 2237 4.3 20:25:27 10° NW 20:31:13 83° WSW 20:35:58 15° SSE
Terra 2.1 20:27:56 15° SE 20:31:42 55° ENE 20:36:22 10° N
IGS 5A 4.0 20:29:57 10° S 20:34:03 57° W 20:38:10 10° NNW
ATLAS 3B R/B 3.3 20:28:53 10° S 20:34:33 31° ESE 20:40:16 10° ENE
USA 234 3.3 20:29:00 13° ESE 20:34:56 71° SSW 20:41:29 10° WNW
Cosmos 1238 Rocket 2.7 20:32:02 10° SSW 20:34:57 58° WNW 20:38:06 10° N
Cosmos 44 4.3 20:31:52 10° WNW 20:36:24 39° SW 20:40:36 13° S
Lacrosse 5 3.7 20:34:15 10° W 20:37:54 20° SW 20:41:32 10° S
Cosmos 1666 3.9 20:37:36 19° SE 20:39:10 24° E 20:42:16 10° NE
COSMOS 2487 4.2 20:39:02 15° ESE 20:39:10 15° E 20:41:15 10° ENE
Resurs 01 Rocket 3.4 20:37:26 10° SSW 20:41:16 28° W 20:45:09 10° NNW
Iridium 4 Rocket 3.5 20:38:44 18° SSE 20:41:25 41° E 20:45:21 10° NNE
GP-B 4.1 20:37:54 10° N 20:42:12 48° W 20:46:28 10° SSW
Cosmos 1602 4.1 20:39:38 10° SSW 20:43:33 68° WNW 20:47:30 10° N
CARTOSAT-1 3.6 20:40:31 15° SSE 20:44:04 85° WSW 20:48:25 10° NNW
Cosmos 1153 Rocket 4.5 20:39:04 10° S 20:45:14 86° E 20:51:31 10° NNE
Cosmos 1833 Rocket 4.4 20:44:22 10° WSW 20:49:36 37° NW 20:54:51 10° NNE
Cosmos 1933 Rocket 4.1 20:45:43 10° SSW 20:50:07 61° WNW 20:54:34 10° N
Cosmos 1814 Rocket 4.3 20:47:42 10° NNW 20:52:51 62° WSW 20:56:57 16° S
COSMOS 2428 3.1 20:47:51 10° NNW 20:53:34 59° NE 20:57:48 18° SE
Cosmos 1867 4.2 20:48:38 10° WSW 20:54:03 62° NW 20:59:30 10° NE
Cosmos 2061 Rocket 4.3 20:50:45 17° SSE 20:55:22 48° E 21:01:18 10° NNE
Cosmos 405 Rocket 3.7 20:52:52 10° SW 20:56:28 46° WNW 21:00:11 10° N
Spot 2 Rocket 4.4 20:51:43 10° S 20:56:36 44° W 21:01:29 10° NNW
Okean 1-7 4.0 20:53:43 10° NNW 20:57:50 44° W 21:01:51 10° SSW
Cosmos 2237 Rocket 3.4 20:52:39 10° NNW 20:57:52 36° NE 21:02:46 11° ESE
USA 238 DEB 3.8 20:52:18 10° SW 20:59:03 86° NW 21:06:09 10° NE
USA 238 3.8 20:52:24 10° SW 20:59:09 86° NW 21:06:15 10° NE
Cosmos 1802 Rocket 4.1 20:54:58 14° S 21:00:21 61° E 21:06:33 10° NNE
Cosmos 44 Rocket 3.4 20:55:52 10° NW 21:00:51 82° NE 21:04:15 21° SE
Cosmos 1869 Rocket 3.5 20:57:44 13° S 21:01:42 81° E 21:06:13 10° NNE
CENTAUR R/B 2.6 20:55:59 10° SW 21:02:13 77° SE 21:09:41 10° NE
NOSS 0 Rocket 4.5 20:56:49 10° NW 21:02:56 53° NE 21:07:51 16° ESE
Cosmos 1437 Rocket 4.4 21:00:26 10° NNW 21:03:44 28° W 21:07:01 10° SSW
Cosmos 1741 Rocket 4.1 21:00:01 10° SSW 21:05:18 81° WNW 21:10:39 10° NNE
Cosmos 1271 Rocket 3.7 21:04:11 10° N 21:07:43 34° ENE 21:09:24 23° ESE
FALCON 9 DEB 3.3 21:04:44 10° W 21:08:10 51° S 21:09:36 29° ESE
H-2A R/B 4.4 21:04:20 10° N 21:08:19 48° WNW 21:12:19 10° SW
Cosmos 2333 Rocket 2.2 21:05:46 10° NW 21:11:36 83° NE 21:15:19 23° SE
Cosmos 1674 Rocket 3.8 21:07:26 10° N 21:11:43 53° ENE 21:13:55 26° SE
ATLAS 5 CENTAUR R/B 2.3 21:10:11 10° WNW 21:12:37 45° SSW 21:14:58 24° SSE
Cosmos 2084 Rocket 3.3 21:11:53 10° SW 21:16:07 83° SE 21:20:29 10° NE
Cosmos 1066 Rocket 4.2 21:12:19 10° NNW 21:18:03 78° ENE 21:21:30 24° SSE
SPOT 5 3.4 21:17:39 17° S 21:20:44 48° W 21:25:07 10° NNW
Geosat 4.4 21:18:02 20° ESE 21:21:21 57° NE 21:26:18 10° NNW
Meteor 1-5 Rocket 4.3 21:18:35 12° SSW 21:24:14 90° ESE 21:30:08 10° NNE
ERBS 2.3 21:26:18 10° WNW 21:29:33 56° SSW 21:30:13 45° SSE
Cosmos 1733 Rocket 3.2 21:29:41 30° SSE 21:31:42 59° E 21:36:05 10° NNE
Cosmos 1356 3.3 21:30:29 35° S 21:31:47 79° ESE 21:35:14 10° NNE
Cosmos 489 Rocket 4.5 21:26:34 10° NNW 21:32:57 88° ENE 21:36:44 26° SSE
Tsikada Rocket 4.0 21:28:20 10° NNW 21:34:45 87° W 21:38:46 24° S
Meteor 1-11 Rocket 3.7 21:31:46 20° S 21:35:55 80° ESE 21:41:48 10° NNE
Lacrosse 4 Rocket 1.6 21:37:37 32° S 21:39:12 49° ESE 21:43:15 10° NE
Cosmos 968 Rocket 4.0 21:37:25 29° SSE 21:39:14 39° ESE 21:44:02 10° NE
USA 267 3.3 21:33:23 10° ENE 21:39:47 54° SSE 21:46:11 10° SW
Cosmos 2219 Rocket 2.2 21:35:39 10° NW 21:41:21 74° WSW 21:44:23 29° SSE
ALOS 2 3.6 21:39:37 23° ESE 21:41:37 36° ENE 21:45:39 10° N
SL-27 R/B 4.1 21:39:59 10° WSW 21:43:00 32° NW 21:46:03 10° NNE
SL-4 R/B 2.5 21:39:34 10° W 21:42:58 33° SSW 21:42:58 33° SSW
Cosmos 2100 Rocket 4.4 21:37:18 10° SSW 21:43:23 63° WNW 21:49:32 10° N
SL-16 R/B 4.3 21:40:04 10° WNW 21:43:41 18° W 21:47:19 10° SW
Cosmos 2173 Rocket 4.4 21:41:17 10° SSW 21:47:22 62° WNW 21:53:26 10° N
NOSS 3-2 (A) 4.2 21:43:19 10° WSW 21:49:23 61° NNW 21:56:30 10° ENE
Cosmos 1242 Rocket 3.2 21:46:03 10° NNW 21:49:35 49° W 21:50:53 32° SSW
EO 1 Del DPAF 4.4 21:49:44 10° NE 21:52:59 26° E 21:53:12 26° ESE
Cosmos 2322 4.3 21:49:11 10° NW 21:54:35 47° WSW 21:57:25 26° S
Cosmos 1607 4.3 21:51:45 10° NW 21:58:09 65° NNE 22:03:21 16° ESE
Cosmos 2082 Rocket 4.4 21:54:03 10° W 21:58:51 27° NNW 22:03:38 10° NNE
Cosmos 1725 Rocket 4.1 21:55:17 20° SSW 21:59:53 82° WNW 22:06:16 10° N
NOSS 3-2 (C) 3.9 21:53:52 10° WSW 21:59:57 68° NNW 22:07:04 10° NE
Spot 4 3.8 21:58:19 35° SSE 22:00:24 86° ENE 22:05:18 10° NNW
Cosmos 1842 3.6 21:56:57 10° N 22:00:49 52° ENE 22:01:52 39° ESE
Cosmos 2322 Rocket 4.4 21:57:30 10° WNW 22:00:52 16° W 22:04:14 10° SW
Cosmos 1833 4.1 21:58:12 15° SSW 22:03:00 85° SE 22:08:44 10° NE
Cosmos 1378 Rocket 3.7 21:58:41 10° NNW 22:03:08 69° W 22:04:52 36° S
Cosmos 1536 3.2 22:03:05 28° SW 22:05:02 60° WNW 22:09:00 10° N
Cosmos 1908 Rocket 3.8 22:04:49 40° SE 22:05:59 52° E 22:10:15 10° NNE
Cosmos 2344 4.2 21:57:46 10° NW 22:06:30 86° NE 22:17:17 14° SE
Cosmos 2016 Rocket 4.4 22:02:20 15° SSW 22:07:38 65° WNW 22:14:00 10° N
Terra 3.4 22:06:49 16° SW 22:09:45 28° W 22:13:52 10° NNW
Cosmos 2360 Rocket 3.9 22:06:04 10° NW 22:10:25 23° WSW 22:13:33 15° SW
SL-16 R/B 3.1 22:07:58 10° NNW 22:13:26 44° NE 22:17:41 16° ESE
COSMOS 2487 2.7 22:12:29 34° SW 22:13:46 62° WNW 22:17:13 10° NNE
Cosmos 1666 3.8 22:12:27 20° SW 22:14:35 39° WNW 22:18:10 10° N
USA 234 4.1 22:16:21 26° S 22:18:41 33° SW 22:24:30 10° WNW
MOS 1-B Rocket 3.7 22:14:23 10° NNE 22:20:05 85° ESE 22:23:10 29° SSW
Cosmos 1378 3.9 22:16:44 10° NNW 22:20:18 43° W 22:21:16 35° SW
ATLAS 3B R/B 2.6 22:18:00 10° SW 22:24:37 88° NW 22:31:23 10° NE
Cosmos 1354 Rocket 4.2 22:23:57 37° SSE 22:25:45 55° ESE 22:30:58 10° NE
Cosmos 1975 Rocket 3.1 22:21:25 10° N 22:25:56 78° ENE 22:27:17 45° SSE
Meteor 1-21 4.2 22:24:38 10° NNW 22:30:29 87° ENE 22:33:00 36° SSE
Cosmos 1544 3.0 22:30:40 62° SSE 22:31:05 71° E 22:34:47 10° NNE
Thor Agena Rocket 3.5 22:27:56 10° NNE 22:33:03 74° ESE 22:35:03 38° S
Cosmos 2297 Rocket 3.3 22:32:11 25° ESE 22:33:13 26° ESE 22:37:49 10° NE
Okean 2 3.4 22:29:23 10° NNW 22:33:30 70° W 22:34:30 48° SSW
Cosmos 1980 3.7 22:28:57 10° NW 22:34:39 75° WSW 22:36:58 37° SSE
Cosmos 1743 2.9 22:35:21 44° SW 22:36:25 67° WNW 22:40:20 10° N
Cosmos 1975 2.9 22:36:14 54° SSE 22:36:56 66° E 22:40:59 10° NNE
Meteor 2-9 Rocket 4.4 22:35:06 36° SSE 22:37:17 60° E 22:43:00 10° NNE
COSMOS 2428 3.6 22:32:26 10° NW 22:37:40 37° WSW 22:39:48 28° SSW
Cosmos 2233 Rocket 4.2 22:34:08 24° SSW 22:38:05 69° WNW 22:44:26 10° N
Cosmos 1025 Rocket 3.6 22:37:08 10° N 22:41:18 47° ENE 22:42:31 36° ESE
Timation 2 Rocket 4.3 22:39:51 35° SSE 22:41:45 45° ESE 22:47:25 10° NE
Cosmos 2237 Rocket 2.2 22:36:45 10° NW 22:42:24 71° WSW 22:44:34 38° SSE
Cosmos 1271 Rocket 4.0 22:40:20 10° NNW 22:43:39 29° W 22:44:32 26° WSW
Cosmos 2219 3.9 22:46:31 32° SE 22:47:45 36° ESE 22:52:51 10° NE
SJ 16-02 3.6 22:47:38 12° E 22:48:06 12° E 22:49:47 10° ENE
Cosmos 1464 Rocket 4.0 22:46:12 35° SSE 22:48:53 68° E 22:55:01 10° NNE
NOSS 0 Rocket 4.4 22:43:28 10° NW 22:49:28 49° WSW 22:51:50 33° SSW
Nadezhda 4 Rocket 4.0 22:45:45 10° N 22:52:05 79° ENE 22:54:56 35° SSE
CENTAUR R/B 3.5 22:46:52 10° W 22:53:24 55° NNW 23:01:09 10° ENE
Okean 2 Rocket 3.8 22:53:44 36° ESE 22:54:40 41° E 22:58:55 10° NNE
Cosmos 2333 Rocket 3.7 22:50:43 10° NW 22:55:17 25° WSW 22:57:19 20° SW
Cosmos 1674 4.1 22:52:44 10° N 22:56:04 29° ENE 22:57:04 25° E
Cosmos 1437 2.9 22:53:37 10° N 22:56:20 62° NNE 22:56:20 62° NNE
Cosmos 1503 Rocket 4.1 22:58:15 32° SW 23:00:51 82° WNW 23:06:16 10° NNE
Cosmos 923 Rocket 4.3 22:59:49 10° NNW 23:05:10 66° ENE 23:07:42 31° SE
DNEPR-1 R/B 4.4 23:07:43 10° NW 23:13:31 48° SW 23:14:43 40° SSW
Cosmos 1092 Rocket 4.0 23:07:35 10° N 23:13:51 74° ENE 23:16:44 34° SSE
Sich 1 Rocket 3.5 23:15:13 53° S 23:16:14 88° ESE 23:20:40 10° NNE
Cosmos 1626 4.1 23:14:06 10° N 23:17:07 23° ENE 23:18:35 18° E
ALOS 2 3.4 23:17:00 34° SW 23:17:57 38° W 23:22:05 10° NNW
Lacrosse 4 Rocket 2.8 23:14:04 10° WSW 23:18:01 37° NW 23:21:55 10° NNE
Helios 1A 2.9 23:18:09 55° S 23:19:00 77° WSW 23:23:15 10° NNW
Cosmos 968 Rocket 4.3 23:17:24 17° WSW 23:21:01 46° NW 23:26:01 10° NNE
Cosmos 1707 2.8 23:17:24 10° NNW 23:21:18 62° W 23:21:46 56° SW
Cosmos 2034 Rocket 4.0 23:19:27 36° S 23:22:13 82° E 23:28:37 10° NNE
USA 267 3.2 23:16:36 10° ENE 23:23:10 90° ESE 23:29:45 10° WSW
YAOGAN 11 4.1 23:22:19 49° S 23:23:32 83° WSW 23:28:09 10° NNW
Cosmos 2227 Rocket 2.6 23:21:59 37° SSE 23:23:35 47° ESE 23:29:00 10° NE
Cosmos 2219 Rocket 4.0 23:20:49 10° WNW 23:24:23 17° W 23:26:05 15° WSW
Cosmos 1461 4.5 23:24:34 24° ESE 23:24:34 24° ESE 23:28:04 10° ENE
EO 1 Del DPAF 4.2 23:23:33 10° N 23:27:06 39° WNW 23:28:12 31° WSW
Cosmos 2151 Rocket 3.8 23:26:48 47° SE 23:27:44 58° E 23:32:04 10° NNE
Cosmos 1536 Rocket 3.4 23:24:22 10° NNW 23:28:43 83° W 23:29:39 55° S
Meteor 1-12 Rocket 4.4 23:28:42 38° S 23:31:09 76° E 23:37:11 10° NNE
Resurs 1-4 Rocket 4.3 23:29:39 10° NE 23:32:38 15° E 23:35:32 10° ESE
Meteor 2-5 Rocket 4.1 23:28:27 10° N 23:34:01 58° ENE 23:36:53 28° SE
Cosmos 1538 Rocket 4.5 23:29:27 10° NW 23:34:21 44° WSW 23:35:35 37° SW
Landsat 4 4.2 23:31:52 10° NNE 23:35:31 44° E 23:35:51 42° ESE
Iridium 51 4.4 23:32:10 10° N 23:36:13 64° E 23:36:51 54° SE
Cosmos 1782 Rocket 4.4 23:35:17 31° WSW 23:36:45 42° WNW 23:40:55 10° N
Cosmos 158 Rocket 4.0 23:39:00 10° NNW 23:44:26 85° WSW 23:46:39 37° SSE
Cosmos 1607 4.3 23:39:12 10° NW 23:45:21 47° WSW 23:47:26 36° S
Cosmos 1805 4.1 23:45:52 34° ESE 23:46:30 37° E 23:50:07 10° NNE
Cosmos 2082 4.2 23:48:47 34° SSE 23:50:30 44° ESE 23:55:50 10° NE
Helios 1B rocket 3.0 23:49:31 10° NNE 23:53:29 45° E 23:54:18 39° SE
PSLV R/B 3.9 23:48:57 10° NNE 23:53:40 69° ESE 23:55:06 44° S
